UAE2698 VHHH-KLAX

Flight info

Callsign UAE2698
Flight time N/A
Altitude 33000
Route DALOL V631 ENVAR M750 MUKEP Y891 OVSUN/N0487F340 Y893 IGMIS/N0486F330 Y57 POROT Y809 IDLAN Y812 ADNAP OTR5 KALNA/N0486F350 DCT 41N160E 41N170E 41N180E 39N170W 36N160W/N0470F370 34N150W 33N145W 33N140W DCT CUNDU DCT ADUMM DCT AUDIA DCT SNAXX RYDRR2
Aircraft B77W/H-SDE1E2E3FGHIJ2J3J4J5M1RWXY/LB1D1

Departure

Time 2026-05-04 19:18
Airport Hong Kong International Airport (VHHH)

Arrival

Time N/A
Airport Los Angeles International Airport (KLAX)
Time Latitude Longitude Altitude Speed Heading
2026-05-04 18:53 22.31267 113.92842 41 ft 0 kts 334°
2026-05-04 19:03 22.31260 113.92845 41 ft 2 kts 334°
2026-05-04 19:03 22.31244 113.92854 41 ft 3 kts 328°
2026-05-04 19:03 22.31228 113.92867 41 ft 3 kts 317°
2026-05-04 19:04 22.31215 113.92883 41 ft 3 kts 306°
2026-05-04 19:04 22.31204 113.92902 41 ft 3 kts 294°
2026-05-04 19:04 22.31197 113.92923 41 ft 3 kts 283°
2026-05-04 19:04 22.31194 113.92945 41 ft 3 kts 273°
2026-05-04 19:05 22.31194 113.92967 41 ft 3 kts 264°
2026-05-04 19:05 22.31160 113.92906 41 ft 17 kts 222°
2026-05-04 19:05 22.31050 113.92836 41 ft 17 kts 210°
2026-05-04 19:06 22.30968 113.92785 41 ft 10 kts 210°
2026-05-04 19:06 22.30915 113.92771 41 ft 6 kts 175°
2026-05-04 19:06 22.30850 113.92784 41 ft 14 kts 165°
2026-05-04 19:06 22.30776 113.92794 41 ft 5 kts 214°
2026-05-04 19:07 22.30767 113.92760 41 ft 10 kts 254°
2026-05-04 19:07 22.30737 113.92661 41 ft 14 kts 252°
2026-05-04 19:07 22.30706 113.92562 41 ft 14 kts 251°
2026-05-04 19:07 22.30680 113.92482 41 ft 8 kts 251°
2026-05-04 19:08 22.30664 113.92429 41 ft 9 kts 251°
2026-05-04 19:08 22.30644 113.92368 41 ft 7 kts 250°
2026-05-04 19:08 22.30628 113.92319 41 ft 9 kts 250°
2026-05-04 19:08 22.30603 113.92244 41 ft 11 kts 250°
2026-05-04 19:09 22.30572 113.92150 41 ft 15 kts 250°
2026-05-04 19:09 22.30543 113.92062 41 ft 9 kts 250°
2026-05-04 19:09 22.30524 113.92004 41 ft 11 kts 250°
2026-05-04 19:09 22.30483 113.91877 41 ft 23 kts 251°
2026-05-04 19:10 22.30433 113.91719 41 ft 22 kts 251°
2026-05-04 19:10 22.30399 113.91614 41 ft 22 kts 250°
2026-05-04 19:10 22.30334 113.91416 41 ft 20 kts 250°
2026-05-04 19:10 22.30293 113.91291 41 ft 16 kts 250°
2026-05-04 19:11 22.30256 113.91180 41 ft 18 kts 250°
2026-05-04 19:11 22.30203 113.91017 41 ft 28 kts 250°
2026-05-04 19:11 22.30140 113.90824 41 ft 24 kts 250°
2026-05-04 19:11 22.30092 113.90675 41 ft 19 kts 250°
2026-05-04 19:12 22.30044 113.90528 41 ft 20 kts 250°
2026-05-04 19:12 22.29953 113.90242 41 ft 21 kts 251°
2026-05-04 19:12 22.29914 113.90118 41 ft 15 kts 251°
2026-05-04 19:13 22.29876 113.90000 41 ft 17 kts 251°
2026-05-04 19:13 22.29845 113.89908 41 ft 10 kts 249°
2026-05-04 19:13 22.29813 113.89835 41 ft 12 kts 232°
2026-05-04 19:13 22.29761 113.89799 41 ft 4 kts 196°
2026-05-04 19:14 22.29752 113.89797 41 ft 0 kts 194°
2026-05-04 19:14 22.29737 113.89796 41 ft 6 kts 178°
2026-05-04 19:15 22.29657 113.89817 41 ft 11 kts 164°
2026-05-04 19:15 22.29638 113.89840 41 ft 4 kts 86°
2026-05-04 19:15 22.29641 113.89855 41 ft 6 kts 74°
2026-05-04 19:15 22.29659 113.89919 41 ft 8 kts 73°
2026-05-04 19:16 22.29663 113.89934 41 ft 0 kts 72°
2026-05-04 19:17 22.29666 113.89944 41 ft 7 kts 72°
2026-05-04 19:17 22.29751 113.90207 42 ft 78 kts 70°
2026-05-04 19:18 22.30024 113.91051 42 ft 158 kts 70°
2026-05-04 19:18 22.30455 113.92379 242 ft 206 kts 71°
2026-05-04 19:18 22.30940 113.93879 1178 ft 215 kts 71°
2026-05-04 19:18 22.31435 113.95408 2317 ft 210 kts 71°
2026-05-04 19:19 22.31904 113.96862 3041 ft 208 kts 71°
2026-05-04 19:19 22.32374 113.98422 3241 ft 226 kts 72°
2026-05-04 19:19 22.32854 114.00087 3611 ft 235 kts 73°
2026-05-04 19:19 22.33322 114.01774 4081 ft 241 kts 72°
2026-05-04 19:20 22.33636 114.03583 4442 ft 254 kts 85°
2026-05-04 19:20 22.33298 114.05547 4639 ft 274 kts 108°
2026-05-04 19:20 22.32368 114.07344 5081 ft 283 kts 125°
2026-05-04 19:20 22.30958 114.08856 5615 ft 289 kts 143°
2026-05-04 19:21 22.29171 114.09888 6060 ft 297 kts 162°
2026-05-04 19:21 22.27094 114.10298 6286 ft 309 kts 180°
2026-05-04 19:21 22.25093 114.10202 7608 ft 279 kts 189°
2026-05-04 19:21 22.23160 114.09948 8501 ft 275 kts 192°
2026-05-04 19:22 22.21261 114.09636 9072 ft 277 kts 193°
2026-05-04 19:22 22.19335 114.09308 9598 ft 283 kts 190°
2026-05-04 19:22 22.17341 114.09509 9998 ft 298 kts 167°
2026-05-04 19:22 22.15517 114.10597 10397 ft 314 kts 144°
2026-05-04 19:23 22.14048 114.12429 10614 ft 334 kts 126°
2026-05-04 19:23 22.12895 114.14722 10827 ft 353 kts 117°
2026-05-04 19:23 22.11868 114.17169 11043 ft 370 kts 115°
2026-05-04 19:23 22.10778 114.19734 11379 ft 382 kts 116°
2026-05-04 19:24 22.09539 114.22289 11797 ft 390 kts 123°
2026-05-04 19:24 22.07913 114.24655 12320 ft 394 kts 133°
2026-05-04 19:24 22.06119 114.26926 12854 ft 399 kts 131°
2026-05-04 19:24 22.04268 114.29161 13394 ft 401 kts 139°
2026-05-04 19:25 22.02072 114.31009 13991 ft 401 kts 149°
2026-05-04 19:25 21.99710 114.32553 14530 ft 404 kts 151°
2026-05-04 19:25 21.97358 114.34263 15082 ft 409 kts 147°
2026-05-04 19:25 21.95059 114.36110 15658 ft 412 kts 145°
2026-05-04 19:26 21.92783 114.37961 16202 ft 415 kts 146°
2026-05-04 19:26 21.90455 114.39815 16731 ft 419 kts 146°
2026-05-04 19:26 21.88115 114.41711 17222 ft 423 kts 142°
2026-05-04 19:26 21.86076 114.44035 17691 ft 431 kts 129°
2026-05-04 19:27 21.84538 114.46816 18214 ft 435 kts 117°
2026-05-04 19:27 21.83383 114.49844 18711 ft 440 kts 111°
2026-05-04 19:27 21.82431 114.52976 19173 ft 444 kts 107°
2026-05-04 19:27 21.81625 114.56187 19642 ft 447 kts 105°
2026-05-04 19:28 21.80874 114.59391 20103 ft 450 kts 105°
2026-05-04 19:28 21.80060 114.62721 20568 ft 452 kts 106°
2026-05-04 19:28 21.79242 114.65934 20998 ft 455 kts 106°
2026-05-04 19:28 21.78388 114.69227 21435 ft 458 kts 106°
2026-05-04 19:29 21.77530 114.72535 21863 ft 461 kts 106°
2026-05-04 19:29 21.76660 114.75886 22283 ft 464 kts 106°
2026-05-04 19:29 21.75804 114.79189 22688 ft 466 kts 106°
2026-05-04 19:29 21.75079 114.82635 23066 ft 470 kts 100°
2026-05-04 19:30 21.74661 114.86140 23467 ft 472 kts 95°
2026-05-04 19:30 21.74430 114.89658 23849 ft 475 kts 93°
2026-05-04 19:30 21.74340 114.93235 24226 ft 478 kts 90°
2026-05-04 19:30 21.74347 114.96755 24587 ft 480 kts 89°
2026-05-04 19:31 21.74368 115.00339 24943 ft 483 kts 90°
2026-05-04 19:31 21.74367 115.03972 25295 ft 485 kts 90°
2026-05-04 19:31 21.74355 115.07619 25641 ft 487 kts 90°
2026-05-04 19:31 21.74341 115.11269 25979 ft 490 kts 90°
2026-05-04 19:32 21.74326 115.14945 26306 ft 492 kts 90°
2026-05-04 19:32 21.74311 115.18567 26622 ft 494 kts 90°
2026-05-04 19:32 21.74297 115.22329 26942 ft 496 kts 90°
2026-05-04 19:32 21.74300 115.26057 27249 ft 499 kts 90°
2026-05-04 19:33 21.74301 115.29746 27548 ft 501 kts 90°
2026-05-04 19:33 21.74294 115.33487 27841 ft 503 kts 90°
2026-05-04 19:33 21.74282 115.37311 28125 ft 505 kts 90°
2026-05-04 19:33 21.74268 115.41098 28400 ft 507 kts 90°
2026-05-04 19:34 21.74253 115.44901 28666 ft 509 kts 90°
2026-05-04 19:34 21.74238 115.48709 28922 ft 511 kts 90°
2026-05-04 19:34 21.74223 115.52487 29160 ft 513 kts 90°
2026-05-04 19:34 21.74208 115.56316 29476 ft 512 kts 90°
2026-05-04 19:35 21.74194 115.60202 29828 ft 511 kts 90°
2026-05-04 19:35 21.74179 115.63973 30152 ft 511 kts 90°
2026-05-04 19:35 21.74162 115.67781 30467 ft 510 kts 90°
2026-05-04 19:35 21.74144 115.71577 30768 ft 509 kts 90°
2026-05-04 19:36 21.74124 115.75404 31057 ft 509 kts 90°
2026-05-04 19:36 21.74082 115.83002 31097 ft 507 kts 90°
2026-05-04 19:37 21.74037 115.90585 31097 ft 507 kts 90°
2026-05-04 19:37 21.74002 115.98125 31097 ft 508 kts 90°
2026-05-04 19:38 21.73979 116.05709 31097 ft 508 kts 90°
2026-05-04 19:38 21.73938 116.13316 31097 ft 508 kts 90°
2026-05-04 19:39 21.73890 116.20840 31097 ft 508 kts 90°
2026-05-04 19:39 21.73837 116.28438 31097 ft 508 kts 90°
2026-05-04 19:40 21.73780 116.36027 31097 ft 508 kts 90°
2026-05-04 19:40 21.73720 116.43624 31097 ft 508 kts 90°
2026-05-04 19:41 21.73676 116.51213 31097 ft 508 kts 90°
2026-05-04 19:41 21.73605 116.58805 31097 ft 508 kts 90°
2026-05-04 19:42 21.73527 116.66335 31097 ft 508 kts 90°
2026-05-04 19:42 21.73528 116.73977 31098 ft 507 kts 86°
2026-05-04 19:43 21.74708 116.81388 31100 ft 507 kts 74°
2026-05-04 19:43 21.76929 116.88581 31097 ft 506 kts 68°
2026-05-04 19:44 21.79544 116.95597 31097 ft 506 kts 67°
2026-05-04 19:44 21.82132 117.02646 31097 ft 506 kts 68°
2026-05-04 19:45 21.84665 117.09653 31097 ft 506 kts 68°
2026-05-04 19:45 21.87223 117.16705 31097 ft 506 kts 68°
2026-05-04 19:46 21.89797 117.23759 31097 ft 506 kts 68°
2026-05-04 19:46 21.92335 117.30819 31097 ft 506 kts 68°
2026-05-04 19:47 21.94869 117.37894 31097 ft 506 kts 68°
2026-05-04 19:47 21.97381 117.44913 31097 ft 506 kts 68°
2026-05-04 19:48 22.00267 117.51803 31097 ft 505 kts 60°
2026-05-04 19:48 22.03826 117.58305 31097 ft 504 kts 56°
2026-05-04 19:49 22.07518 117.64724 31097 ft 504 kts 57°
2026-05-04 19:49 22.11154 117.71138 31098 ft 504 kts 57°
2026-05-04 19:50 22.14821 117.77573 31097 ft 504 kts 57°
2026-05-04 19:50 22.18463 117.84037 31097 ft 504 kts 57°
2026-05-04 19:51 22.22095 117.90498 31097 ft 504 kts 57°
2026-05-04 19:51 22.25735 117.96976 31097 ft 504 kts 57°
2026-05-04 19:52 22.29401 118.03422 31097 ft 504 kts 56°
2026-05-04 19:52 22.33140 118.09749 31097 ft 504 kts 56°
2026-05-04 19:53 22.36883 118.16157 31097 ft 504 kts 56°
2026-05-04 19:53 22.40613 118.22555 31096 ft 504 kts 56°
2026-05-04 19:54 22.44286 118.29014 31097 ft 504 kts 57°
2026-05-04 19:54 22.47914 118.35441 31097 ft 504 kts 57°
2026-05-04 19:55 22.51563 118.41910 31097 ft 504 kts 57°
2026-05-04 19:55 22.55210 118.48376 31097 ft 504 kts 57°
2026-05-04 19:56 22.58873 118.54838 31096 ft 504 kts 57°
2026-05-04 19:56 22.62532 118.61254 31097 ft 504 kts 57°
2026-05-04 19:57 22.66204 118.67711 31097 ft 504 kts 57°
2026-05-04 19:57 22.69877 118.74181 31097 ft 504 kts 57°
2026-05-04 19:58 22.73544 118.80649 31097 ft 504 kts 57°
2026-05-04 19:58 22.77228 118.87113 31097 ft 504 kts 57°
2026-05-04 19:59 22.80882 118.93531 31097 ft 504 kts 57°
2026-05-04 19:59 22.84552 119.00006 31097 ft 504 kts 57°
2026-05-04 20:00 22.87600 119.05393 31097 ft 504 kts 57°
2026-05-04 20:00 22.91015 119.11438 31097 ft 504 kts 57°
2026-05-04 20:01 22.94649 119.17878 31097 ft 504 kts 57°
2026-05-04 20:01 22.98305 119.24365 31097 ft 504 kts 57°
2026-05-04 20:02 23.01965 119.30854 31097 ft 504 kts 57°
2026-05-04 20:02 23.05627 119.37345 31097 ft 504 kts 57°
2026-05-04 20:03 23.09270 119.43846 31097 ft 504 kts 57°
2026-05-04 20:03 23.12911 119.50356 31097 ft 504 kts 57°
2026-05-04 20:04 23.16553 119.56865 31097 ft 504 kts 57°
2026-05-04 20:04 23.20167 119.63328 31098 ft 504 kts 57°
2026-05-04 20:05 23.23821 119.69847 31097 ft 504 kts 57°
2026-05-04 20:05 23.27441 119.76354 31097 ft 504 kts 57°
2026-05-04 20:06 23.31070 119.82892 31097 ft 504 kts 57°
2026-05-04 20:06 23.34740 119.89320 31097 ft 503 kts 52°
2026-05-04 20:07 23.39260 119.95115 31094 ft 501 kts 45°
2026-05-04 20:07 23.44148 120.00506 31097 ft 500 kts 41°
2026-05-04 20:08 23.49193 120.05707 31097 ft 500 kts 41°
2026-05-04 20:08 23.54250 120.10922 31097 ft 500 kts 41°
2026-05-04 20:09 23.59258 120.16102 31097 ft 500 kts 41°
2026-05-04 20:09 23.64309 120.21312 31097 ft 500 kts 41°
2026-05-04 20:10 23.69359 120.26515 31097 ft 500 kts 41°
2026-05-04 20:10 23.74395 120.31729 31097 ft 500 kts 41°
2026-05-04 20:11 23.79413 120.36945 31097 ft 500 kts 41°
2026-05-04 20:11 23.84445 120.42184 31097 ft 500 kts 41°
2026-05-04 20:12 23.89475 120.47420 31097 ft 500 kts 41°
2026-05-04 20:12 23.94493 120.52689 31097 ft 500 kts 42°
2026-05-04 20:13 23.99495 120.57973 31097 ft 500 kts 42°
2026-05-04 20:13 24.04464 120.63227 31097 ft 500 kts 42°
2026-05-04 20:14 24.09453 120.68508 31097 ft 500 kts 42°
2026-05-04 20:14 24.14465 120.73819 31097 ft 500 kts 42°
2026-05-04 20:15 24.19473 120.79092 31097 ft 500 kts 41°
2026-05-04 20:15 24.24452 120.84348 31097 ft 500 kts 42°
2026-05-04 20:16 24.29440 120.89652 31097 ft 500 kts 42°
2026-05-04 20:16 24.34430 120.94965 31097 ft 500 kts 42°
2026-05-04 20:17 24.39424 121.00285 31097 ft 500 kts 42°
2026-05-04 20:17 24.44141 121.05853 31098 ft 502 kts 48°
2026-05-04 20:18 24.48477 121.11863 31097 ft 503 kts 51°
2026-05-04 20:18 24.52738 121.17935 31097 ft 503 kts 50°
2026-05-04 20:19 24.57070 121.23966 31097 ft 502 kts 50°
2026-05-04 20:19 24.61415 121.29984 31097 ft 502 kts 50°
2026-05-04 20:20 24.65748 121.35955 31097 ft 502 kts 49°
2026-05-04 20:20 24.70101 121.41962 31097 ft 502 kts 49°
2026-05-04 20:21 24.74451 121.47963 31097 ft 502 kts 50°
2026-05-04 20:21 24.80957 121.57013 31097 ft 502 kts 50°
2026-05-04 20:22 24.85263 121.63013 31097 ft 502 kts 50°
2026-05-04 20:22 24.89595 121.69050 31097 ft 503 kts 50°
2026-05-04 20:23 24.94097 121.74932 31097 ft 502 kts 46°
2026-05-04 20:23 24.98721 121.80686 31097 ft 502 kts 47°
2026-05-04 20:24 25.03287 121.86517 31097 ft 502 kts 47°
2026-05-04 20:24 25.07837 121.92350 31097 ft 502 kts 47°
2026-05-04 20:25 25.12361 121.98148 31097 ft 502 kts 47°
2026-05-04 20:25 25.16891 122.04000 31097 ft 502 kts 47°
2026-05-04 20:26 25.21422 122.09879 31097 ft 502 kts 47°
2026-05-04 20:26 25.25939 122.15747 31097 ft 502 kts 47°
2026-05-04 20:27 25.30470 122.21632 31097 ft 502 kts 47°
2026-05-04 20:27 25.34984 122.27451 31097 ft 502 kts 47°
2026-05-04 20:28 25.39498 122.33331 31097 ft 502 kts 48°
2026-05-04 20:28 25.44013 122.39228 31097 ft 502 kts 48°
2026-05-04 20:29 25.48524 122.45122 31097 ft 502 kts 48°
2026-05-04 20:29 25.53017 122.50978 31097 ft 502 kts 47°
2026-05-04 20:30 25.57539 122.56852 31097 ft 502 kts 47°
2026-05-04 20:30 25.62105 122.62798 31096 ft 511 kts 47°
2026-05-04 20:31 25.66750 122.68854 31137 ft 521 kts 48°
2026-05-04 20:31 25.71495 122.75018 31264 ft 527 kts 47°
2026-05-04 20:32 25.73876 122.78095 31499 ft 526 kts 47°
2026-05-04 20:32 25.76200 122.81123 31726 ft 525 kts 48°
2026-05-04 20:32 25.78576 122.84230 31937 ft 524 kts 48°
2026-05-04 20:32 25.80930 122.87315 32129 ft 524 kts 48°
2026-05-04 20:33 25.83277 122.90392 32319 ft 523 kts 48°
2026-05-04 20:33 25.85629 122.93478 32505 ft 523 kts 48°
2026-05-04 20:33 25.87976 122.96556 32684 ft 523 kts 48°
2026-05-04 20:33 25.90326 122.99637 32858 ft 522 kts 48°
2026-05-04 20:34 25.92643 123.02680 32990 ft 522 kts 48°
2026-05-04 20:34 25.94984 123.05761 32996 ft 522 kts 48°
2026-05-04 20:34 25.99660 123.11926 32997 ft 521 kts 48°
2026-05-04 20:35 26.04332 123.18098 32997 ft 521 kts 48°
2026-05-04 20:35 26.08992 123.24263 32997 ft 521 kts 48°
2026-05-04 20:36 26.13660 123.30437 32996 ft 521 kts 48°
2026-05-04 20:36 26.18316 123.36559 32997 ft 521 kts 48°
2026-05-04 20:37 26.22994 123.42747 32997 ft 521 kts 48°
2026-05-04 20:37 26.27656 123.48929 32997 ft 521 kts 48°
2026-05-04 20:38 26.32314 123.55118 32997 ft 521 kts 48°
2026-05-04 20:38 26.36979 123.61324 32997 ft 521 kts 48°
2026-05-04 20:39 26.41606 123.67489 32997 ft 521 kts 48°
2026-05-04 20:39 26.46263 123.73694 32996 ft 521 kts 48°
2026-05-04 20:40 26.50924 123.79897 32997 ft 521 kts 48°
2026-05-04 20:40 26.55565 123.86118 32997 ft 521 kts 48°
2026-05-04 20:41 26.60203 123.92345 32997 ft 522 kts 48°
2026-05-04 20:41 26.64845 123.98578 32997 ft 521 kts 48°
2026-05-04 20:42 26.69454 124.04759 32997 ft 521 kts 48°
2026-05-04 20:42 26.74098 124.10994 32997 ft 522 kts 48°
2026-05-04 20:43 26.77993 124.16222 32996 ft 521 kts 48°
2026-05-04 20:43 26.83407 124.23458 32997 ft 522 kts 48°
2026-05-04 20:44 26.88035 124.29701 32997 ft 522 kts 49°
2026-05-04 20:44 26.91889 124.34908 32997 ft 522 kts 49°
2026-05-04 20:45 26.96521 124.41167 32997 ft 522 kts 49°
2026-05-04 20:45 27.01156 124.47420 32997 ft 522 kts 48°
2026-05-04 20:46 27.05792 124.53679 32997 ft 522 kts 49°
2026-05-04 20:46 27.11175 124.60964 32997 ft 522 kts 49°
2026-05-04 20:47 27.15054 124.66218 32997 ft 522 kts 49°
2026-05-04 20:47 27.19646 124.72441 32997 ft 521 kts 48°
2026-05-04 20:48 27.24300 124.78683 32997 ft 522 kts 48°
2026-05-04 20:48 27.29680 124.85997 32997 ft 522 kts 49°